Regional Weather Roundup
Issued by NWS

Home | Current Version | Previous Version | Graphics & Text | Print | Product List | Glossary On
Versions: 1 2 3 4 5 6 7 8 9 10 11 12 13 14 15 16 17 18 19 20 21 22 23 24 25 26 27
000
ASUS45 KTFX 211110
RWRMT
MONTANA REGIONAL WEATHER ROUNDUP
NATIONAL WEATHER SERVICE GREAT FALLS MT
500 AM MDT THU SEP 21 2017

NOTE: "FAIR" INDICATES FEW OR NO CLOUDS BELOW 12000 FEET WITH NO
SIGNIFICANT WEATHER AND/OR OBSTRUCTIONS TO VISIBILITY.

MTZ001>007-043-211200-
WEST OF THE DIVIDE

CITY           SKY/WX    TMP DP  RH WIND       PRES   REMARKS
KALISPELL      CLOUDY    41  39  93 CALM      29.77R
MISSOULA       CLOUDY    41  38  89 NW3       29.81R
BUTTE          CLOUDY    32  32 100 CALM      29.79S
MULLAN PASS    FOG       30  28  92 VRB3      29.76R VSB 3/4
ANACONDA         N/A     34  28  80 SW6       29.80R WCI  29
DEER LODGE       N/A     32  28  86 CALM      29.81S
EUREKA           N/A     45  36  70 CALM      29.76R
HAMILTON         N/A     39  34  81 S6        29.80R
LIBBY            N/A     30  30 100 CALM      29.78R
PLAINS           N/A     42  37  82 CALM      29.82R
$$

MTZ008-052>055-211200-
SOUTHWEST MONTANA

CITY           SKY/WX    TMP DP  RH WIND       PRES   REMARKS
BOZEMAN        CLOUDY    42  41  96 CALM      29.77R
DILLON         CLOUDY    37  31  78 W3        29.75S
W YELLOWSTONE  LGT SNOW  32  32 100 MISG      29.78S
ENNIS          CLOUDY    39  36  87 NE6       29.80S
THREE FORKS      N/A     41  36  82 CALM      29.79R
TWIN BRIDGES     N/A     37  31  79 CALM      29.77F
$$

MTZ009-010-012-014-046-048-049-054-211200-
EAST SLOPES AND CENTRAL MONTANA

CITY           SKY/WX    TMP DP  RH WIND       PRES   REMARKS
CUT BANK       PTCLDY    31  28  89 NW10      29.74R WCI  22
GREAT FALLS    CLOUDY    37  28  70 SW9       29.75R WCI  30
HELENA         CLOUDY    38  32  79 SE5       29.77R
CHOTEAU          N/A     37  27  65 SW7       29.75R
RAYNESFORD     MOCLDY    43  26  51 W9        29.75R
$$

MTZ011-013-016-021-045-047-050-051-211200-
NORTH CENTRAL MONTANA

CITY           SKY/WX    TMP DP  RH WIND       PRES   REMARKS
HAVRE          PTCLDY    40  33  76 W10       29.71R
LEWISTOWN      CLOUDY    42  32  67 W5        29.75R
N BAR RANCH    CLOUDY    45  28  53 NW7       29.76R
CHINOOK          N/A     39  34  81 SW7       29.70R
GEYSER         MOCLDY    41  28  58 N6        29.75R
JUDITH GAP     CLOUDY    38  32  78 S7        29.73R
$$

MTZ017>020-022>027-061-062-211200-
NORTHEAST MONTANA

CITY           SKY/WX    TMP DP  RH WIND       PRES   REMARKS
GLASGOW        CLOUDY    47  38  71 W5        29.67R
JORDAN           N/A     49  38  65 SW6       29.72R
SIDNEY         MOCLDY    45  40  82 S5        29.66S
WOLF POINT     CLOUDY    46  41  82 CALM      29.67R
MALTA          CLEAR     41  34  75 W8        29.69R
POPLAR           N/A     46  39  76 CALM      29.67R
SCOBEY           N/A     40  31  70 CALM      29.67R
$$

MTZ028>42-056>058-211200-
SOUTHCENTRAL AND SOUTHEAST MONTANA

CITY           SKY/WX    TMP DP  RH WIND       PRES   REMARKS
BAKER          CLOUDY    56  34  43 NW9       29.67F
BILLINGS       LGT RAIN  48  43  82 W3        29.74R
LIVINGSTON     CLOUDY    43  39  86 W15       29.74R
MILES CITY     LGT RAIN  52  41  66 W10       29.71F
BIG TIMBER     CLOUDY    45  37  76 W15G21    29.76R
LAUREL           N/A     46  45  93 CALM      29.74S
$$

REGIONAL REPORTS...DAKOTAS

CITY           SKY/WX    TMP DP  RH WIND       PRES   REMARKS
WILLISTON      CLOUDY    48  42  80 NE3       29.64F
MINOT          CLOUDY    54  40  59 E3        29.63F
DICKINSON      CLOUDY    56  40  55 S7        29.63S
BEACH          CLOUDY    55  34  44 W7        29.69S
CROSBY           N/A     46  39  76 SW10      29.66R
TIOGA            N/A     48  43  81 NW9       29.66F
BISMARCK       CLOUDY    57  45  64 SE12      29.68F
GRAND FORKS    PTCLDY    53  47  79 S12       29.81S
FARGO          MOCLDY    57  48  72 SE13G18   29.85R
BUFFALO SD       N/A     62  38  40 E9        29.58F
$$

REGIONAL REPORTS...WYOMING/IDAHO/WASHINGTON

CITY           SKY/WX    TMP DP  RH WIND       PRES   REMARKS
GILLETTE       CLEAR     43  37  79 NW3       29.65R
SHERIDAN       CLOUDY    50  39  66 NW9       29.72R
BUFFALO WY     CLEAR     48  33  56 NW14      29.72R
CODY           LGT RAIN  44  41  89 W9        29.73S
IDAHO FALLS    LGT RAIN  42  41  96 S10       29.78R
SALMON         CLOUDY    37  36  96 CALM      29.80R
BOISE          CLOUDY    47  43  86 CALM      29.77S
SPOKANE        CLOUDY    40  39  97 S8        29.79R
$$

REGIONAL REPORTS...ALBERTA

CITY           SKY/WX    TMP DP  RH WIND       PRES   REMARKS
EDMONTON       LGT RAIN  37  37 100 N9G17     29.67R WCI  31
CALGARY        MOCLDY    36  32  87 NW14G22   29.71R WCI  27
LETHBRIDGE     CLOUDY    39  32  75 W5        29.73R
MEDICINE HAT   CLOUDY    39  34  81 SW9       29.71R
$$

REGIONAL REPORTS...SASKATCHEWAN

CITY           SKY/WX    TMP DP  RH WIND       PRES   REMARKS
SWIFT CURRENT  CLEAR     34  28  80 W14       29.65R WCI  24
REGINA         PTCLDY    37  32  81 E5        29.61R
SASKATOON      CLEAR     34  32  93 SW9       29.59R WCI  26
$$




USA.gov is the U.S. government's official web portal to all federal, state and local government web resources and services.